QPF
0.01 0.01 0.00 0.00 0.00 0.00 0.01 0.01 0.02 0.04 0.01 0.03 0.02 0.01 0.01 0.01 0.01 0.01 0.01 0.00 0.00 0.00 0.00 0.00 0.00 0.00 0.00 0.00 0.00 0.00 0.00 0.00 0.00 0.00 0.01 0.01 0.02 0.01 0.00 0.00 0.00 0.00 0.00 0.00 0.00 0.00 0.00 0.00 0.00 0.00 0.00 0.00
0.00 0.01 0.01 0.00 0.00 0.00 0.02 0.02 0.02 0.02 0.03 0.03 0.02 0.02 0.01 0.01 0.01 0.00 0.01 0.00 0.00 0.00 0.00 0.00 0.00 0.00 0.00 0.00 0.00 0.00 0.00 0.00 0.00 0.00 0.01 0.01 0.01 0.00 0.00 0.00 0.00 0.00 0.00 0.00 0.00 0.00 0.00 0.00 0.00 0.00 0.00 0.00
0.01 0.00 0.01 0.01 0.00 0.00 0.02 0.01 0.02 0.03 0.02 0.03 0.02 0.02 0.01 0.01 0.00 0.00 0.00 0.00 0.00 0.00 0.00 0.00 0.00 0.00 0.00 0.00 0.00 0.00 0.00 0.00 0.00 0.00 0.01 0.01 0.00 0.00 0.00 0.00 0.00 0.00 0.00 0.00 0.00 0.00 0.00 0.00 0.00 0.00 0.00 0.00
0.02 0.00 0.00 0.00 0.00 0.00 0.01 0.02 0.02 0.02 0.11 0.02 0.03 0.03 0.02 0.02 0.00 0.00 0.00 0.00 0.00 0.00 0.00 0.00 0.00 0.00 0.00 0.00 0.00 0.00 0.00 0.00 0.00 0.01 0.02 0.02 0.00 0.00 0.00 0.00 0.00 0.00 0.00 0.00 0.00 0.00 0.00 0.00 0.00 0.00 0.00 0.00
0.16 0.04 0.00 0.00 0.00 0.00 0.00 0.01 0.04 0.01 0.02 0.05 0.11 0.03 0.03 0.03 0.02 0.00 0.00 0.00 0.00 0.00 0.00 0.00 0.00 0.00 0.00 0.00 0.00 0.00 0.00 0.00 0.00 0.01 0.02 0.02 0.01 0.00 0.00 0.00 0.00 0.00 0.00 0.00 0.00 0.00 0.00 0.00 0.00 0.00 0.00 0.00
0.11 0.11 0.01 0.03 0.02 0.02 0.03 0.03 0.01 0.19 0.06 0.13 0.08 0.08 0.05 0.03 0.02 0.01 0.00 0.00 0.00 0.00 0.00 0.00 0.00 0.00 0.00 0.00 0.00 0.00 0.00 0.00 0.00 0.00 0.02 0.02 0.00 0.00 0.00 0.00 0.00 0.00 0.00 0.00 0.00 0.00 0.00 0.00 0.00 0.00 0.00 0.00
0.52 0.14 0.09 0.12 0.05 0.03 0.03 0.01 0.04 0.08 0.09 0.09 0.07 0.08 0.05 0.02 0.01 0.00 0.00 0.00 0.00 0.00 0.00 0.00 0.00 0.00 0.00 0.00 0.00 0.00 0.00 0.00 0.00 0.00 0.00 0.00 0.00 0.00 0.00 0.00 0.00 0.00 0.00 0.00 0.00 0.00 0.00 0.00 0.00 0.00 0.00 0.00
0.74 0.22 0.19 0.19 0.29 0.13 0.08 0.06 0.06 0.02 0.10 0.12 0.07 0.10 0.05 0.05 0.03 0.01 0.00 0.01 0.01 0.00 0.00 0.00 0.00 0.00 0.00 0.00 0.00 0.00 0.00 0.00 0.00 0.00 0.00 0.00 0.00 0.00 0.00 0.00 0.00 0.00 0.00 0.00 0.00 0.00 0.00 0.00 0.00 0.00 0.00 0.00
0.66 0.36 0.18 0.32 0.47 0.21 0.10 0.09 0.04 0.01 0.04 0.09 0.16 0.12 0.08 0.03 0.04 0.04 0.03 0.02 0.01 0.00 0.00 0.00 0.00 0.00 0.00 0.00 0.00 0.00 0.00 0.00 0.00 0.00 0.00 0.00 0.00 0.00 0.00 0.00 0.00 0.00 0.00 0.00 0.00 0.00 0.00 0.00 0.00 0.00 0.00 0.00
0.82 0.62 0.35 0.30 0.23 0.17 0.12 0.14 0.11 0.01 0.01 0.09 0.11 0.11 0.13 0.02 0.01 0.03 0.05 0.05 0.03 0.01 0.00 0.00 0.00 0.00 0.00 0.00 0.00 0.00 0.00 0.00 0.00 0.00 0.00 0.00 0.00 0.00 0.00 0.00 0.00 0.00 0.00 0.00 0.00 0.00 0.00 0.00 0.00 0.00 0.00 0.00
0.90 0.80 0.68 0.75 0.48 0.29 0.27 0.48 0.22 0.05 0.00 0.00 0.01 0.01 0.01 0.02 0.03 0.01 0.02 0.02 0.03 0.03 0.02 0.01 0.00 0.00 0.00 0.00 0.00 0.00 0.00 0.00 0.00 0.00 0.00 0.00 0.00 0.00 0.00 0.00 0.00 0.00 0.00 0.00 0.00 0.00 0.00 0.00 0.00 0.00 0.00 0.00
0.72 0.77 0.90 1.00 0.86 0.96 0.86 0.55 0.36 0.05 0.04 0.06 0.00 0.03 0.01 0.05 0.25 0.40 0.22 0.00 0.00 0.00 0.00 0.00 0.00 0.00 0.00 0.00 0.00 0.00 0.00 0.00 0.00 0.00 0.00 0.00 0.00 0.00 0.00 0.00 0.00 0.00 0.00 0.00 0.00 0.00 0.00 0.00 0.00 0.00 0.00 0.00
0.53 0.71 0.68 0.92 0.80 0.63 0.55 0.58 0.65 0.42 0.25 0.31 0.19 0.13 0.13 0.11 0.09 0.03 0.12 0.17 0.04 0.00 0.00 0.00 0.00 0.00 0.00 0.00 0.00 0.00 0.00 0.00 0.00 0.00 0.00 0.00 0.00 0.00 0.00 0.00 0.00 0.00 0.00 0.00 0.00 0.00 0.00 0.00 0.00 0.00 0.00 0.00
0.42 0.58 0.77 0.79 0.80 0.85 0.80 0.67 0.48 0.41 0.29 0.25 0.28 0.21 0.12 0.17 0.14 0.07 0.09 0.03 0.02 0.00 0.00 0.00 0.00 0.00 0.00 0.00 0.00 0.00 0.00 0.00 0.00 0.00 0.00 0.00 0.00 0.00 0.00 0.00 0.00 0.00 0.00 0.00 0.00 0.00 0.00 0.00 0.00 0.00 0.00 0.00
0.50 0.48 0.59 0.74 0.91 0.94 0.73 0.67 0.77 0.88 0.64 0.47 0.34 0.34 0.21 0.26 0.14 0.13 0.03 0.00 0.00 0.00 0.00 0.00 0.00 0.00 0.00 0.00 0.00 0.00 0.00 0.00 0.00 0.00 0.00 0.00 0.00 0.00 0.00 0.00 0.00 0.00 0.00 0.00 0.00 0.00 0.00 0.00 0.00 0.00 0.00 0.00
0.37 0.44 0.49 0.52 0.65 0.90 0.98 1.00 1.06 0.91 0.74 0.64 0.51 0.43 0.44 0.19 0.14 0.11 0.06 0.06 0.02 0.01 0.00 0.01 0.01 0.00 0.00 0.00 0.00 0.00 0.00 0.00 0.00 0.00 0.00 0.00 0.00 0.00 0.00 0.00 0.00 0.00 0.00 0.00 0.00 0.00 0.00 0.00 0.00 0.00 0.00 0.00
0.31 0.34 0.38 0.39 0.44 0.57 0.78 0.93 0.98 0.93 0.82 0.76 0.61 0.52 0.58 0.47 0.35 0.19 0.14 0.19 0.07 0.02 0.02 0.10 0.01 0.02 0.00 0.00 0.00 0.00 0.00 0.01 0.02 0.00 0.00 0.01 0.00 0.00 0.00 0.00 0.00 0.00 0.00 0.00 0.00 0.00 0.00 0.00 0.00 0.00 0.00 0.00
0.29 0.38 0.43 0.41 0.42 0.43 0.52 0.76 0.94 0.94 0.96 0.76 0.63 0.59 0.57 0.50 0.42 0.34 0.29 0.20 0.17 0.09 0.05 0.03 0.01 0.03 0.02 0.01 0.00 0.00 0.00 0.00 0.00 0.00 0.00 0.00 0.00 0.00 0.00 0.00 0.00 0.00 0.00 0.00 0.00 0.00 0.00 0.00 0.00 0.00 0.00 0.00
0.10 0.19 0.24 0.33 0.45 0.54 0.63 0.86 0.86 0.83 0.88 0.88 0.84 0.82 0.77 0.60 0.47 0.39 0.33 0.27 0.23 0.15 0.09 0.04 0.02 0.01 0.05 0.00 0.00 0.00 0.00 0.00 0.00 0.00 0.00 0.00 0.00 0.00 0.00 0.00 0.00 0.00 0.00 0.00 0.00 0.00 0.00 0.00 0.00 0.00 0.00 0.00
0.06 0.07 0.15 0.37 0.47 0.45 0.52 0.56 0.74 0.99 1.05 1.05 1.00 0.91 0.80 0.71 0.66 0.59 0.48 0.39 0.32 0.23 0.13 0.06 0.02 0.00 0.00 0.00 0.00 0.01 0.00 0.00 0.00 0.00 0.00 0.00 0.00 0.00 0.00 0.00 0.00 0.00 0.00 0.00 0.00 0.00 0.00 0.00 0.00 0.00 0.00 0.00
0.05 0.06 0.07 0.09 0.17 0.43 0.52 0.56 0.62 0.51 0.62 0.78 0.82 0.78 0.76 0.79 0.76 0.66 0.60 0.52 0.41 0.31 0.23 0.14 0.09 0.06 0.05 0.03 0.01 0.01 0.00 0.00 0.00 0.00 0.00 0.00 0.00 0.00 0.00 0.00 0.00 0.00 0.00 0.00 0.00 0.00 0.00 0.00 0.00 0.00 0.00 0.00
0.06 0.07 0.07 0.07 0.10 0.17 0.24 0.46 0.64 0.77 0.69 0.56 0.56 0.64 0.67 0.63 0.63 0.63 0.66 0.65 0.50 0.40 0.33 0.27 0.23 0.19 0.14 0.10 0.06 0.03 0.01 0.00 0.00 0.00 0.00 0.00 0.00 0.00 0.00 0.00 0.00 0.00 0.00 0.00 0.00 0.00 0.00 0.00 0.00 0.00 0.00 0.00
0.07 0.09 0.10 0.11 0.11 0.11 0.21 0.27 0.28 0.34 0.55 0.76 0.78 0.67 0.61 0.63 0.67 0.65 0.59 0.55 0.51 0.44 0.35 0.30 0.29 0.26 0.22 0.18 0.10 0.08 0.06 0.05 0.03 0.02 0.01 0.00 0.00 0.00 0.00 0.00 0.00 0.00 0.00 0.00 0.00 0.00 0.00 0.00 0.00 0.00 0.00 0.00
0.04 0.07 0.10 0.13 0.15 0.17 0.16 0.16 0.22 0.31 0.37 0.42 0.52 0.62 0.70 0.77 0.78 0.75 0.73 0.70 0.62 0.51 0.42 0.37 0.33 0.29 0.24 0.20 0.19 0.18 0.13 0.08 0.05 0.03 0.01 0.00 0.00 0.00 0.00 0.00 0.00 0.00 0.00 0.00 0.00 0.00 0.00 0.00 0.00 0.00 0.00 0.00
0.03 0.04 0.08 0.11 0.13 0.16 0.20 0.21 0.22 0.27 0.38 0.51 0.57 0.58 0.59 0.60 0.61 0.66 0.70 0.72 0.67 0.56 0.46 0.42 0.40 0.36 0.31 0.26 0.24 0.27 0.32 0.32 0.22 0.10 0.03 0.01 0.00 0.00 0.00 0.00 0.00 0.00 0.00 0.00 0.00 0.00 0.00 0.00 0.00 0.00 0.00 0.00
0.03 0.03 0.05 0.07 0.11 0.13 0.13 0.14 0.15 0.16 0.18 0.24 0.36 0.49 0.56 0.62 0.68 0.73 0.74 0.71 0.66 0.59 0.52 0.48 0.45 0.42 0.38 0.33 0.28 0.26 0.27 0.29 0.34 0.35 0.25 0.13 0.05 0.02 0.01 0.01 0.01 0.00 0.00 0.00 0.00 0.00 0.00 0.00 0.00 0.00 0.00 0.00
0.02 0.03 0.03 0.04 0.06 0.09 0.12 0.13 0.14 0.17 0.23 0.29 0.33 0.32 0.36 0.44 0.49 0.57 0.64 0.69 0.71 0.68 0.62 0.56 0.48 0.41 0.37 0.35 0.34 0.34 0.33 0.32 0.31 0.31 0.34 0.35 0.27 0.18 0.07 0.03 0.02 0.02 0.02 0.01 0.00 0.00 0.01 0.01 0.01 0.01 0.00 0.00
0.02 0.03 0.03 0.04 0.05 0.06 0.07 0.09 0.12 0.13 0.14 0.17 0.22 0.28 0.34 0.37 0.38 0.44 0.54 0.62 0.67 0.68 0.66 0.63 0.58 0.52 0.46 0.41 0.37 0.36 0.36 0.34 0.33 0.30 0.26 0.23 0.24 0.25 0.25 0.15 0.07 0.03 0.01 0.01 0.01 0.02 0.02 0.02 0.01 0.02 0.01 0.01
0.03 0.03 0.03 0.05 0.06 0.07 0.07 0.08 0.08 0.09 0.11 0.13 0.14 0.16 0.18 0.19 0.23 0.28 0.32 0.37 0.42 0.48 0.55 0.59 0.60 0.57 0.52 0.47 0.43 0.39 0.37 0.35 0.33 0.30 0.26 0.22 0.18 0.16 0.17 0.21 0.17 0.11 0.06 0.03 0.02 0.03 0.03 0.03 0.02 0.01 0.01 0.00
0.05 0.06 0.07 0.06 0.06 0.07 0.07 0.08 0.08 0.08 0.09 0.10 0.11 0.13 0.15 0.19 0.20 0.22 0.25 0.29 0.33 0.37 0.39 0.41 0.43 0.45 0.44 0.40 0.36 0.33 0.32 0.31 0.28 0.26 0.22 0.18 0.14 0.12 0.11 0.15 0.17 0.19 0.15 0.12 0.12 0.11 0.07 0.05 0.05 0.03 0.02 0.03
0.03 0.04 0.05 0.08 0.09 0.10 0.11 0.09 0.09 0.10 0.11 0.10 0.13 0.14 0.16 0.19 0.22 0.26 0.28 0.30 0.32 0.35 0.37 0.41 0.44 0.44 0.43 0.41 0.36 0.31 0.27 0.26 0.25 0.24 0.23 0.22 0.20 0.19 0.18 0.16 0.18 0.17 0.17 0.14 0.14 0.15 0.13 0.12 0.11 0.07 0.05 0.06
MSLP
1017.60 1017.72 1017.88 1018.08 1018.16 1018.28 1018.44 1018.56 1018.76 1018.92 1019.08 1019.28 1019.48 1019.64 1019.80 1020.00 1020.24 1020.36 1020.56 1020.64 1020.72 1020.88 1020.96 1021.08 1021.28 1021.52 1021.68 1021.84 1021.96 1022.08 1022.16 1022.16 1022.12 1022.24 1022.32 1022.40 1022.52 1022.72 1022.92 1023.04 1023.00 1022.96 1022.92 1022.92 1022.88 1022.84 1022.80 1022.80 1022.72 1022.64 1022.64 1022.88
1017.60 1017.64 1017.80 1018.00 1018.12 1018.20 1018.32 1018.44 1018.60 1018.80 1019.00 1019.20 1019.40 1019.52 1019.72 1019.92 1020.20 1020.36 1020.56 1020.64 1020.80 1021.00 1021.12 1021.12 1021.20 1021.44 1021.68 1021.84 1022.00 1022.16 1022.28 1022.20 1022.16 1022.28 1022.40 1022.44 1022.60 1022.80 1023.08 1023.20 1023.20 1023.16 1023.12 1023.08 1023.08 1023.04 1022.96 1022.88 1022.84 1022.84 1022.88 1023.08
1017.52 1017.56 1017.80 1017.96 1018.08 1018.16 1018.24 1018.36 1018.56 1018.80 1019.00 1019.28 1019.40 1019.44 1019.68 1019.96 1020.12 1020.32 1020.52 1020.60 1020.80 1020.92 1021.04 1021.24 1021.16 1021.40 1021.68 1021.80 1021.96 1022.16 1022.32 1022.24 1022.24 1022.36 1022.48 1022.56 1022.64 1022.92 1023.24 1023.32 1023.32 1023.28 1023.24 1023.20 1023.20 1023.16 1023.08 1023.00 1023.00 1023.04 1023.12 1023.28
1017.52 1017.64 1017.60 1017.76 1018.00 1018.08 1018.16 1018.32 1018.56 1018.72 1018.96 1019.20 1019.44 1019.52 1019.72 1019.92 1020.04 1020.32 1020.52 1020.64 1020.80 1020.96 1021.00 1021.08 1021.24 1021.40 1021.64 1021.84 1021.88 1022.16 1022.28 1022.32 1022.32 1022.56 1022.64 1022.68 1022.76 1023.04 1023.40 1023.48 1023.44 1023.44 1023.36 1023.32 1023.32 1023.32 1023.28 1023.24 1023.28 1023.32 1023.44 1023.64
1017.40 1017.40 1017.52 1017.64 1017.68 1017.76 1018.00 1018.20 1018.40 1018.64 1018.92 1019.12 1019.36 1019.52 1019.64 1019.84 1019.96 1020.16 1020.44 1020.68 1020.84 1021.04 1021.12 1021.12 1021.20 1021.32 1021.48 1021.72 1021.84 1022.08 1022.28 1022.40 1022.56 1022.68 1022.84 1022.88 1023.00 1023.24 1023.56 1023.64 1023.64 1023.56 1023.52 1023.48 1023.48 1023.48 1023.44 1023.40 1023.44 1023.60 1023.84 1023.96
1017.48 1017.52 1017.64 1017.60 1017.64 1017.64 1017.72 1017.96 1018.20 1018.52 1018.76 1019.08 1019.20 1019.28 1019.56 1019.72 1019.84 1020.04 1020.24 1020.48 1020.76 1021.00 1021.12 1021.16 1021.20 1021.32 1021.36 1021.60 1021.84 1022.08 1022.32 1022.52 1022.72 1022.88 1023.00 1023.20 1023.36 1023.48 1023.68 1023.76 1023.84 1023.80 1023.68 1023.64 1023.60 1023.56 1023.52 1023.60 1023.84 1024.04 1024.16 1024.32
1017.56 1017.56 1017.72 1017.88 1017.84 1017.84 1017.84 1017.92 1018.08 1018.36 1018.68 1018.96 1019.20 1019.32 1019.36 1019.64 1019.76 1019.96 1020.20 1020.40 1020.56 1020.84 1021.08 1021.24 1021.36 1021.48 1021.52 1021.56 1021.76 1022.00 1022.32 1022.64 1022.92 1023.12 1023.36 1023.44 1023.56 1023.72 1023.80 1023.92 1023.96 1023.92 1023.88 1023.80 1023.72 1023.68 1023.72 1023.92 1024.12 1024.24 1024.36 1024.64
1017.76 1017.72 1017.52 1017.64 1017.80 1017.92 1018.04 1018.20 1018.24 1018.36 1018.72 1019.04 1019.20 1019.20 1019.36 1019.64 1019.92 1020.08 1020.32 1020.56 1020.76 1020.92 1021.12 1021.40 1021.52 1021.64 1021.80 1021.84 1021.88 1021.96 1022.28 1022.68 1023.08 1023.36 1023.56 1023.68 1023.76 1023.84 1023.92 1024.00 1024.04 1024.00 1024.00 1024.04 1024.00 1023.96 1024.00 1024.08 1024.24 1024.48 1024.72 1024.92
1017.64 1017.88 1017.64 1017.64 1017.76 1017.88 1017.96 1018.12 1018.28 1018.44 1018.68 1018.96 1019.08 1019.28 1019.28 1019.48 1019.88 1020.24 1020.52 1020.72 1020.88 1021.00 1021.24 1021.56 1021.76 1021.84 1022.00 1022.24 1022.32 1022.20 1022.44 1022.72 1023.00 1023.32 1023.68 1023.88 1023.92 1024.00 1024.00 1024.08 1024.12 1024.12 1024.16 1024.20 1024.24 1024.24 1024.28 1024.32 1024.48 1024.76 1024.96 1025.28
1017.60 1017.68 1017.56 1017.60 1017.56 1017.48 1017.68 1017.96 1018.20 1018.40 1018.64 1018.88 1019.08 1019.24 1019.40 1019.72 1019.88 1020.04 1020.28 1020.60 1020.76 1020.92 1021.20 1021.52 1021.76 1021.96 1022.04 1022.28 1022.56 1022.64 1022.68 1022.88 1023.04 1023.24 1023.52 1023.88 1024.04 1024.04 1024.08 1024.12 1024.12 1024.20 1024.28 1024.36 1024.44 1024.52 1024.56 1024.68 1024.84 1025.00 1025.28 1025.68
1017.48 1017.48 1017.48 1017.40 1017.24 1017.40 1017.76 1017.92 1018.12 1018.28 1018.52 1018.52 1018.76 1019.24 1019.40 1019.60 1019.96 1020.08 1020.16 1020.36 1020.60 1020.84 1021.12 1021.44 1021.68 1021.88 1022.04 1022.32 1022.60 1022.72 1022.88 1022.96 1023.08 1023.28 1023.48 1023.76 1024.04 1024.20 1024.28 1024.32 1024.36 1024.40 1024.52 1024.64 1024.76 1024.84 1024.88 1025.00 1025.12 1025.24 1025.52 1025.96
1017.68 1017.68 1017.60 1017.60 1017.60 1017.68 1017.80 1017.84 1017.88 1018.12 1018.40 1018.72 1018.68 1018.92 1019.24 1019.48 1019.64 1019.92 1019.80 1019.76 1020.16 1020.56 1020.92 1021.28 1021.52 1021.68 1021.96 1022.28 1022.56 1022.72 1022.92 1023.04 1023.08 1023.16 1023.40 1023.76 1024.08 1024.32 1024.48 1024.56 1024.60 1024.68 1024.80 1024.96 1025.08 1025.16 1025.24 1025.32 1025.48 1025.80 1026.00 1026.32
1017.56 1017.64 1017.72 1017.76 1017.84 1018.00 1017.96 1017.88 1017.92 1018.04 1018.32 1018.72 1019.08 1019.16 1019.28 1019.48 1019.76 1019.88 1020.12 1020.08 1020.04 1020.36 1020.64 1021.00 1021.28 1021.48 1021.76 1022.08 1022.36 1022.64 1022.92 1022.96 1023.04 1023.12 1023.24 1023.64 1024.04 1024.32 1024.56 1024.68 1024.80 1024.92 1025.08 1025.28 1025.44 1025.56 1025.64 1025.72 1025.92 1026.12 1026.36 1026.76
1017.96 1018.04 1018.12 1018.24 1018.28 1018.36 1018.32 1018.48 1018.64 1018.44 1018.08 1018.28 1018.52 1018.92 1019.24 1019.48 1019.72 1019.76 1020.32 1020.48 1020.44 1020.40 1020.64 1021.00 1021.28 1021.44 1021.64 1021.88 1022.20 1022.52 1022.80 1022.92 1023.04 1023.12 1023.28 1023.56 1023.96 1024.24 1024.48 1024.64 1024.88 1025.08 1025.32 1025.56 1025.76 1025.88 1026.04 1026.20 1026.40 1026.52 1026.76 1027.12
1019.00 1018.84 1018.76 1018.80 1018.72 1018.64 1018.88 1019.08 1019.00 1019.44 1019.32 1019.28 1019.28 1019.36 1019.28 1019.24 1019.44 1019.88 1019.96 1020.12 1020.28 1020.36 1020.48 1020.92 1021.24 1021.52 1021.64 1021.84 1022.12 1022.44 1022.72 1022.88 1023.04 1023.28 1023.36 1023.56 1023.84 1024.16 1024.40 1024.68 1024.88 1025.20 1025.56 1025.88 1026.08 1026.32 1026.44 1026.64 1026.80 1027.00 1027.24 1027.48
1019.72 1019.72 1019.64 1019.52 1019.28 1019.28 1019.20 1019.24 1019.52 1019.72 1019.64 1019.96 1020.16 1019.92 1020.12 1020.32 1020.08 1019.88 1020.20 1020.36 1020.40 1020.28 1020.52 1020.88 1021.20 1021.44 1021.72 1021.96 1022.16 1022.40 1022.56 1022.80 1023.04 1023.28 1023.44 1023.60 1023.88 1024.20 1024.48 1024.76 1025.04 1025.36 1025.68 1026.08 1026.36 1026.52 1026.80 1027.00 1027.20 1027.48 1027.68 1027.80
1020.28 1020.28 1020.24 1020.12 1020.08 1020.04 1019.80 1019.72 1019.84 1020.24 1020.36 1020.12 1020.12 1020.84 1020.68 1020.68 1020.88 1020.80 1020.64 1020.56 1020.32 1020.44 1020.68 1021.04 1021.44 1021.68 1021.88 1022.12 1022.32 1022.52 1022.64 1022.76 1023.12 1023.28 1023.52 1023.88 1024.12 1024.36 1024.64 1024.92 1025.32 1025.60 1025.96 1026.32 1026.68 1026.88 1027.20 1027.36 1027.60 1027.88 1028.04 1028.20
1020.76 1020.84 1020.84 1020.76 1020.68 1020.56 1020.40 1020.36 1020.36 1020.76 1021.04 1021.00 1020.48 1020.12 1020.72 1021.40 1021.60 1021.48 1021.36 1021.12 1020.76 1020.64 1020.88 1021.20 1021.48 1021.84 1022.04 1022.40 1022.56 1022.76 1022.88 1023.00 1023.16 1023.36 1023.60 1023.76 1024.08 1024.48 1024.76 1025.16 1025.52 1025.84 1026.28 1026.72 1027.00 1027.28 1027.56 1027.80 1028.08 1028.28 1028.48 1028.72
1021.24 1021.40 1021.44 1021.44 1021.36 1021.20 1021.08 1021.00 1020.92 1020.96 1021.04 1021.72 1021.52 1020.88 1020.84 1020.76 1021.56 1022.32 1021.92 1021.68 1021.36 1021.24 1021.40 1021.60 1021.76 1022.04 1022.16 1022.32 1022.60 1022.92 1023.12 1023.20 1023.32 1023.44 1023.64 1023.88 1024.24 1024.68 1025.04 1025.36 1025.76 1026.08 1026.52 1026.92 1027.28 1027.64 1027.88 1028.20 1028.48 1028.64 1028.92 1029.20
1021.56 1021.76 1021.84 1022.00 1021.96 1021.84 1021.72 1021.64 1021.64 1021.76 1021.68 1021.56 1021.84 1021.72 1021.48 1021.68 1021.44 1021.72 1022.72 1022.60 1022.00 1021.48 1021.88 1022.04 1022.24 1022.36 1022.40 1022.52 1022.80 1023.16 1023.40 1023.48 1023.64 1023.76 1023.92 1024.20 1024.36 1024.80 1025.44 1025.72 1026.16 1026.44 1026.80 1027.20 1027.60 1028.00 1028.28 1028.60 1028.84 1029.08 1029.32 1029.60
1021.84 1022.08 1022.20 1022.32 1022.40 1022.40 1022.40 1022.36 1022.36 1022.36 1022.16 1022.20 1022.12 1021.88 1021.96 1022.00 1022.12 1022.36 1022.16 1023.00 1022.64 1022.16 1022.60 1022.84 1022.76 1022.76 1022.64 1022.68 1022.96 1023.36 1023.68 1023.88 1024.00 1024.16 1024.36 1024.64 1024.84 1025.00 1025.52 1026.04 1026.52 1026.88 1027.20 1027.56 1027.96 1028.28 1028.64 1028.96 1029.12 1029.36 1029.68 1030.04
1022.00 1022.28 1022.48 1022.60 1022.76 1022.88 1022.88 1023.00 1023.04 1022.88 1022.64 1022.60 1022.56 1022.52 1022.52 1022.24 1022.24 1022.44 1023.12 1022.68 1022.96 1022.92 1023.20 1023.56 1023.48 1023.12 1022.92 1022.96 1023.28 1023.60 1024.04 1024.44 1024.56 1024.68 1024.72 1025.00 1025.32 1025.48 1025.80 1026.40 1026.84 1027.28 1027.72 1028.04 1028.36 1028.72 1029.08 1029.36 1029.52 1029.80 1030.04 1030.36
1022.00 1022.20 1022.48 1022.72 1022.92 1023.16 1023.36 1023.40 1023.52 1023.44 1023.20 1023.08 1022.92 1023.04 1022.96 1022.88 1022.60 1022.56 1022.96 1023.68 1023.04 1023.16 1023.60 1023.76 1023.84 1024.00 1023.76 1023.20 1023.44 1023.68 1024.12 1024.68 1025.16 1025.40 1025.44 1025.48 1025.92 1026.24 1026.48 1026.80 1027.24 1027.64 1028.08 1028.52 1028.92 1029.24 1029.56 1029.72 1029.96 1030.24 1030.52 1030.76
1021.96 1022.12 1022.36 1022.64 1022.92 1023.32 1023.72 1023.96 1023.92 1024.00 1023.92 1023.68 1023.44 1023.32 1023.16 1023.08 1023.32 1023.12 1022.80 1023.76 1023.92 1023.40 1023.72 1024.08 1024.16 1024.16 1024.40 1024.32 1023.64 1023.52 1023.88 1024.56 1025.00 1025.56 1025.96 1026.28 1026.36 1026.80 1027.28 1027.64 1027.92 1028.16 1028.44 1029.00 1029.44 1029.80 1029.92 1030.08 1030.28 1030.52 1030.80 1031.00
1022.28 1022.40 1022.44 1022.72 1023.28 1023.72 1024.12 1024.20 1024.36 1024.48 1024.48 1024.36 1024.20 1023.92 1023.72 1023.60 1023.48 1023.52 1023.52 1023.48 1024.24 1024.08 1024.04 1024.40 1024.56 1024.40 1024.48 1024.64 1024.64 1024.32 1024.36 1024.84 1025.16 1025.36 1025.72 1026.20 1026.52 1026.84 1027.44 1028.16 1028.36 1028.64 1028.72 1028.96 1029.88 1030.36 1030.52 1030.76 1030.88 1031.04 1031.28 1031.52
1022.96 1023.28 1023.32 1023.28 1023.56 1023.80 1024.12 1024.40 1024.60 1024.84 1024.92 1024.96 1024.84 1024.60 1024.28 1024.20 1024.12 1024.08 1023.96 1023.80 1023.88 1024.36 1024.64 1025.00 1025.00 1024.84 1024.84 1025.00 1025.00 1025.12 1025.04 1025.00 1025.52 1025.72 1025.88 1026.04 1026.68 1027.24 1027.48 1028.44 1029.04 1028.88 1028.60 1029.16 1029.48 1030.04 1030.92 1031.32 1031.52 1031.76 1031.88 1032.04
1023.80 1023.96 1024.04 1024.12 1024.28 1024.36 1024.52 1024.68 1024.88 1025.00 1025.24 1025.36 1025.40 1025.28 1025.08 1024.88 1024.76 1024.56 1024.52 1024.48 1024.40 1024.24 1024.44 1025.04 1025.48 1025.28 1025.12 1025.32 1025.36 1025.20 1025.48 1025.32 1025.56 1026.00 1026.20 1026.48 1026.68 1027.76 1028.28 1028.88 1029.48 1029.40 1029.16 1028.64 1029.40 1029.72 1030.36 1031.36 1031.92 1032.20 1032.64 1032.80
1024.20 1024.28 1024.44 1024.52 1024.68 1024.76 1024.76 1025.00 1025.08 1025.12 1025.28 1025.44 1025.60 1025.72 1025.68 1025.56 1025.36 1025.16 1025.08 1025.04 1024.96 1025.00 1024.92 1024.76 1025.20 1025.48 1025.28 1025.52 1025.56 1025.52 1025.76 1025.96 1025.84 1026.08 1026.40 1026.80 1027.08 1026.96 1027.80 1028.20 1029.52 1029.92 1029.88 1029.20 1028.88 1029.40 1029.36 1030.52 1031.12 1031.72 1032.88 1033.56
1024.24 1024.40 1024.56 1024.68 1024.80 1024.92 1025.00 1025.20 1025.28 1025.40 1025.60 1025.84 1025.88 1026.08 1026.20 1026.24 1026.04 1025.80 1025.68 1025.56 1025.44 1025.40 1025.52 1025.44 1025.32 1025.68 1025.68 1025.60 1025.76 1025.76 1025.92 1026.32 1026.20 1026.28 1026.52 1026.72 1027.00 1027.04 1027.12 1027.96 1029.08 1030.00 1030.16 1029.96 1029.96 1028.64 1029.36 1030.20 1030.60 1029.92 1031.96 1032.92
1024.36 1024.44 1024.44 1024.52 1024.52 1024.60 1024.88 1025.00 1025.40 1025.84 1026.08 1026.32 1026.60 1026.68 1026.80 1026.76 1026.64 1026.44 1026.32 1026.16 1026.04 1025.88 1025.88 1025.92 1025.96 1026.16 1026.00 1025.92 1026.20 1026.16 1026.32 1026.80 1026.80 1026.64 1026.80 1026.88 1026.80 1027.04 1027.36 1027.40 1028.12 1029.40 1030.52 1030.64 1030.48 1030.40 1030.00 1029.44 1028.24 1029.76 1031.68 1030.96
1024.40 1024.44 1024.48 1024.40 1024.40 1024.52 1024.68 1025.44 1026.28 1026.56 1026.72 1026.84 1027.04 1027.16 1027.20 1027.24 1027.24 1027.16 1026.96 1026.84 1026.68 1026.52 1026.44 1026.44 1026.60 1026.72 1026.68 1026.48 1026.56 1026.84 1026.76 1026.96 1027.40 1027.60 1027.56 1027.52 1027.16 1027.28 1027.48 1027.68 1028.16 1029.04 1030.12 1030.44 1030.64 1030.56 1030.36 1030.36 1030.44 1029.84 1030.40 1031.12
Thickness
5674 5674 5673 5671 5671 5670 5669 5668 5666 5666 5667 5667 5666 5666 5666 5665 5665 5665 5664 5664 5664 5664 5663 5663 5662 5660 5659 5658 5656 5656 5655 5655 5655 5655 5654 5654 5652 5651 5649 5649 5649 5649 5650 5650 5650 5650 5650 5650 5650 5650 5651 5650
5671 5672 5670 5669 5669 5668 5667 5666 5665 5664 5664 5663 5664 5663 5662 5662 5661 5661 5660 5660 5660 5659 5660 5660 5659 5658 5656 5654 5653 5652 5651 5651 5651 5651 5650 5650 5648 5646 5644 5643 5644 5644 5644 5644 5644 5644 5644 5645 5645 5645 5645 5644
5668 5669 5668 5667 5666 5666 5665 5665 5663 5661 5661 5660 5660 5660 5659 5658 5658 5657 5657 5657 5657 5657 5656 5656 5656 5655 5652 5651 5650 5648 5647 5646 5646 5646 5645 5645 5644 5641 5638 5639 5639 5639 5639 5639 5639 5639 5639 5640 5639 5638 5639 5639
5666 5665 5667 5666 5665 5665 5664 5663 5662 5659 5658 5657 5656 5657 5656 5655 5655 5655 5654 5654 5653 5653 5653 5653 5653 5650 5649 5647 5647 5645 5643 5643 5642 5641 5640 5641 5639 5635 5634 5634 5634 5634 5634 5634 5633 5633 5634 5634 5633 5633 5633 5632
5664 5663 5664 5664 5664 5664 5663 5661 5659 5657 5656 5654 5654 5653 5653 5653 5653 5653 5652 5651 5650 5649 5649 5649 5648 5647 5645 5643 5643 5642 5640 5638 5637 5636 5635 5635 5633 5631 5630 5629 5629 5629 5629 5629 5628 5628 5628 5628 5628 5628 5627 5625
5661 5659 5660 5660 5660 5661 5661 5659 5656 5655 5654 5653 5652 5652 5653 5652 5652 5651 5650 5649 5647 5646 5644 5644 5644 5643 5641 5639 5639 5638 5635 5633 5632 5631 5630 5629 5627 5626 5626 5624 5624 5623 5623 5623 5623 5623 5623 5623 5623 5622 5620 5618
5658 5654 5656 5656 5655 5655 5656 5655 5653 5652 5651 5650 5650 5650 5651 5649 5649 5649 5648 5647 5645 5642 5640 5640 5639 5638 5637 5635 5634 5634 5631 5628 5626 5625 5624 5623 5621 5621 5620 5619 5618 5617 5617 5617 5617 5618 5618 5617 5616 5615 5614 5611
5653 5649 5651 5654 5652 5650 5649 5649 5649 5649 5647 5645 5645 5645 5646 5646 5645 5645 5643 5641 5640 5638 5636 5635 5634 5634 5632 5629 5629 5630 5627 5624 5622 5619 5618 5617 5616 5615 5615 5614 5613 5612 5611 5611 5611 5612 5612 5612 5611 5609 5607 5605
5646 5644 5646 5651 5650 5646 5645 5645 5645 5644 5642 5641 5640 5640 5642 5643 5642 5640 5638 5636 5635 5633 5632 5631 5629 5629 5628 5625 5623 5623 5623 5621 5619 5616 5613 5612 5611 5610 5610 5608 5607 5607 5607 5606 5605 5606 5606 5606 5606 5604 5600 5599
5641 5641 5642 5646 5647 5645 5644 5643 5643 5639 5637 5637 5636 5636 5637 5638 5638 5637 5635 5633 5631 5630 5628 5627 5625 5625 5624 5622 5618 5616 5617 5616 5614 5613 5610 5607 5606 5605 5604 5603 5602 5602 5601 5600 5600 5600 5600 5599 5600 5597 5594 5592
5637 5638 5639 5641 5642 5642 5640 5639 5640 5637 5634 5635 5635 5633 5633 5634 5634 5633 5633 5631 5628 5626 5624 5622 5621 5620 5619 5617 5614 5612 5610 5610 5610 5608 5606 5603 5601 5600 5598 5598 5597 5596 5595 5594 5594 5594 5594 5593 5593 5590 5588 5585
5633 5633 5634 5635 5635 5635 5635 5635 5636 5634 5630 5629 5630 5629 5629 5630 5629 5630 5632 5630 5626 5623 5621 5618 5618 5617 5616 5613 5611 5608 5605 5604 5605 5604 5602 5599 5596 5594 5592 5591 5591 5590 5588 5586 5586 5588 5587 5586 5586 5584 5581 5578
5628 5628 5628 5628 5628 5628 5629 5630 5630 5629 5627 5626 5625 5625 5624 5624 5623 5624 5626 5624 5622 5619 5617 5615 5614 5614 5612 5609 5607 5604 5601 5599 5601 5600 5597 5595 5591 5588 5587 5586 5584 5583 5581 5579 5579 5580 5580 5579 5578 5576 5573 5571
5619 5620 5620 5620 5621 5622 5622 5622 5622 5622 5624 5624 5623 5621 5620 5620 5619 5619 5618 5616 5615 5614 5614 5611 5609 5608 5607 5605 5602 5599 5596 5595 5595 5594 5593 5591 5587 5583 5582 5580 5579 5577 5574 5573 5572 5572 5572 5571 5570 5568 5564 5562
5608 5610 5611 5612 5613 5615 5616 5616 5615 5615 5617 5617 5615 5614 5614 5615 5616 5615 5614 5612 5610 5611 5610 5607 5604 5602 5600 5599 5597 5594 5591 5590 5589 5586 5586 5585 5581 5579 5577 5575 5574 5571 5568 5566 5564 5564 5564 5563 5562 5559 5555 5554
5598 5600 5601 5603 5604 5606 5608 5609 5609 5608 5609 5608 5606 5605 5605 5606 5608 5609 5608 5606 5606 5607 5605 5602 5599 5597 5594 5593 5591 5588 5586 5585 5583 5580 5580 5578 5575 5573 5571 5569 5567 5565 5562 5559 5558 5557 5556 5555 5554 5551 5548 5545
5587 5590 5591 5593 5594 5595 5598 5601 5601 5600 5599 5599 5599 5599 5599 5598 5597 5599 5600 5600 5602 5602 5599 5596 5594 5591 5588 5586 5583 5581 5580 5580 5577 5574 5574 5572 5569 5567 5564 5562 5560 5558 5555 5553 5551 5550 5548 5547 5545 5543 5540 5538
5577 5579 5581 5583 5585 5586 5588 5590 5592 5592 5591 5591 5594 5596 5594 5592 5589 5588 5590 5592 5594 5593 5592 5589 5587 5585 5582 5579 5576 5574 5573 5572 5571 5570 5568 5566 5563 5560 5557 5555 5553 5551 5548 5545 5543 5540 5539 5538 5535 5534 5532 5530
5567 5568 5571 5572 5575 5576 5578 5580 5582 5584 5584 5582 5584 5588 5588 5586 5584 5580 5580 5582 5584 5583 5581 5580 5578 5577 5576 5574 5570 5567 5566 5565 5564 5562 5561 5559 5556 5552 5550 5548 5546 5543 5540 5537 5535 5532 5530 5528 5526 5525 5523 5521
5559 5559 5561 5562 5564 5566 5568 5570 5571 5572 5574 5573 5574 5577 5578 5579 5578 5575 5572 5571 5573 5575 5572 5569 5568 5569 5569 5567 5564 5560 5559 5558 5556 5554 5552 5551 5549 5546 5542 5540 5537 5535 5533 5529 5526 5524 5522 5520 5518 5516 5514 5512
5552 5551 5552 5553 5554 5555 5556 5558 5560 5560 5562 5564 5566 5567 5568 5570 5571 5568 5566 5563 5563 5565 5562 5558 5559 5562 5563 5560 5557 5553 5552 5550 5547 5546 5544 5542 5540 5539 5536 5533 5530 5527 5524 5522 5518 5516 5513 5511 5509 5508 5506 5503
5545 5545 5544 5545 5544 5545 5546 5546 5547 5550 5553 5555 5557 5558 5558 5561 5564 5562 5559 5556 5556 5555 5551 5550 5552 5553 5555 5554 5551 5547 5545 5541 5537 5536 5535 5533 5531 5530 5529 5525 5522 5519 5516 5513 5510 5507 5504 5503 5501 5499 5497 5494
5539 5539 5538 5537 5537 5536 5536 5536 5538 5540 5542 5545 5547 5550 5551 5552 5555 5556 5553 5548 5549 5548 5545 5544 5545 5544 5544 5546 5545 5542 5539 5534 5529 5526 5525 5524 5521 5520 5519 5516 5513 5510 5508 5504 5501 5499 5496 5493 5492 5490 5488 5487
5533 5533 5532 5531 5530 5528 5527 5527 5528 5529 5531 5534 5537 5539 5543 5544 5544 5546 5547 5541 5538 5540 5541 5538 5537 5536 5534 5534 5537 5537 5534 5528 5523 5519 5516 5515 5513 5511 5508 5505 5503 5501 5499 5496 5491 5489 5487 5485 5483 5481 5479 5478
5525 5525 5525 5525 5522 5521 5519 5519 5519 5520 5521 5523 5525 5528 5532 5535 5534 5535 5537 5535 5530 5530 5532 5530 5528 5529 5527 5525 5526 5527 5526 5522 5517 5514 5512 5509 5506 5504 5501 5496 5494 5493 5493 5489 5483 5479 5477 5475 5473 5472 5470 5468
5516 5515 5515 5516 5514 5514 5513 5512 5512 5511 5512 5513 5514 5518 5521 5523 5524 5524 5526 5527 5525 5523 5523 5520 5518 5520 5519 5517 5517 5517 5517 5515 5510 5506 5505 5503 5499 5496 5493 5488 5485 5485 5486 5483 5479 5474 5469 5465 5463 5461 5460 5458
5506 5505 5505 5506 5505 5506 5506 5505 5505 5504 5504 5505 5505 5507 5509 5511 5513 5514 5515 5516 5517 5517 5517 5513 5509 5510 5511 5509 5509 5508 5507 5506 5503 5499 5497 5495 5493 5489 5485 5481 5477 5476 5478 5476 5474 5470 5464 5459 5455 5452 5449 5447
5497 5497 5497 5497 5497 5497 5498 5498 5497 5498 5497 5497 5497 5497 5498 5500 5501 5503 5504 5505 5507 5507 5508 5508 5504 5503 5503 5501 5501 5501 5498 5497 5496 5493 5489 5487 5486 5485 5482 5476 5470 5466 5467 5469 5468 5466 5461 5454 5452 5448 5441 5435
5490 5491 5490 5490 5491 5490 5491 5490 5489 5490 5489 5488 5489 5488 5487 5488 5490 5492 5493 5494 5496 5497 5496 5498 5497 5495 5495 5494 5493 5493 5490 5487 5487 5487 5483 5480 5479 5479 5478 5473 5466 5460 5458 5459 5459 5461 5459 5453 5454 5450 5439 5432
5482 5483 5483 5484 5484 5485 5485 5483 5480 5478 5478 5478 5478 5478 5477 5477 5478 5481 5482 5483 5484 5487 5487 5487 5487 5485 5486 5486 5484 5483 5482 5479 5477 5477 5475 5474 5474 5472 5472 5469 5464 5456 5451 5450 5449 5451 5452 5450 5453 5446 5436 5432
5476 5476 5476 5477 5478 5478 5477 5474 5470 5467 5467 5468 5468 5468 5467 5467 5468 5469 5470 5471 5472 5474 5476 5477 5476 5475 5476 5477 5475 5474 5473 5470 5468 5467 5466 5466 5467 5466 5464 5463 5459 5451 5446 5444 5441 5441 5442 5441 5442 5440 5435 5432